Wind_Speed
27 27 27 27 27 27 27 27 27 27 27 27 27 28 29 30 31 32 32 31 31 31 32 32 32 32 33 33 33 32 32 33 34 35 35 36 36 36
26 26 26 26 26 26 26 27 27 26 26 26 27 28 29 30 30 31 31 31 31 31 31 31 32 32 32 32 33 33 33 32 33 34 35 35 36 37
26 25 24 23 23 23 24 24 25 25 25 25 25 26 27 28 29 31 31 32 32 32 31 31 32 32 32 33 32 32 33 33 33 34 34 36 36 37
24 24 23 22 22 22 22 23 23 23 23 23 24 25 26 27 28 29 30 31 32 32 31 31 32 32 32 33 33 33 33 33 34 34 34 35 36 36
24 23 21 21 21 21 21 22 22 23 23 23 23 24 25 25 26 27 29 30 32 32 32 32 32 32 32 32 32 32 33 33 33 33 33 33 35 36
23 22 21 21 21 21 21 22 22 22 22 22 22 22 23 24 25 26 27 29 30 31 31 31 32 32 32 32 32 31 31 32 32 33 33 34 34 35
22 22 21 21 21 20 20 20 20 21 21 21 21 22 23 24 25 26 26 26 28 29 30 31 31 32 33 33 33 32 32 32 32 33 33 34 34 35
21 21 21 20 19 19 19 19 19 19 19 20 21 21 22 23 24 24 23 24 25 26 28 29 31 32 32 32 33 33 33 33 33 33 33 33 34 35
21 20 19 18 18 17 18 18 18 18 18 19 20 20 20 20 20 20 21 21 22 23 24 25 27 29 30 31 32 33 34 34 34 34 33 33 33 34
20 19 18 17 17 17 17 17 18 18 18 17 17 18 17 17 17 17 18 19 20 21 22 22 24 25 26 27 29 31 31 32 33 32 31 32 32 33
19 19 18 16 17 17 16 16 16 17 16 16 15 15 15 16 16 17 18 19 19 20 20 22 23 24 25 26 27 28 29 30 31 31 31 31 31 32
19 18 18 17 17 17 16 15 15 15 15 15 15 15 15 16 17 17 18 18 18 19 20 21 22 23 23 25 25 26 27 29 30 32 32 31 31 32
19 18 18 17 17 16 17 16 16 15 15 15 15 14 14 15 16 17 18 18 18 18 19 20 21 22 22 23 24 26 27 27 29 30 31 31 31 31
19 18 18 17 17 16 17 17 16 16 15 15 15 14 14 15 15 16 16 17 17 17 18 19 19 21 22 23 24 25 26 28 28 29 30 31 31 32
19 18 17 17 16 16 16 16 16 15 15 15 15 15 15 14 14 15 15 15 15 16 17 18 18 19 20 21 22 23 24 25 26 27 28 29 30 31
20 19 18 17 17 17 17 16 16 16 15 16 16 16 15 14 14 15 16 16 15 16 16 16 17 18 18 19 20 21 23 24 25 26 27 27 28 29
21 20 20 19 18 17 17 17 17 16 16 16 16 16 15 15 15 15 15 15 16 16 16 16 16 17 17 18 19 20 21 22 24 25 25 26 27 28
21 21 20 19 18 17 17 17 17 17 17 16 16 16 16 16 16 16 15 15 15 15 16 16 16 17 17 18 19 19 20 21 22 23 23 23 24 25
22 21 20 20 19 18 18 18 18 18 18 17 17 17 17 16 16 15 15 15 16 16 16 16 16 16 17 17 18 19 19 20 20 21 21 22 22 23
21 21 21 21 20 20 19 18 19 19 19 19 18 18 17 16 16 15 15 16 15 15 16 16 16 16 16 17 17 17 18 19 19 19 20 21 22 23
21 21 22 22 21 20 20 20 20 20 20 20 19 18 17 17 17 16 16 16 15 15 15 15 15 16 16 16 17 17 17 17 17 18 18 20 21 21
21 22 22 23 22 21 20 21 21 21 21 20 20 19 18 18 17 17 16 16 15 15 15 14 14 14 15 15 16 16 17 16 16 16 17 17 18 19
22 22 23 23 22 22 21 21 21 21 21 20 20 19 18 18 17 17 16 15 15 14 14 14 14 14 15 15 15 16 16 16 16 16 17 17 18 18
Wind_Direction
295 293 293 290 286 283 279 277 276 275 270 267 265 261 260 260 260 259 258 257 257 257 256 255 253 253 253 254 254 253 252 251 249 249 249 248 249 249
300 296 294 292 288 282 278 276 276 274 271 267 265 263 261 259 258 258 258 256 256 257 257 256 254 253 253 254 254 253 253 251 250 249 249 249 249 249
301 298 295 293 289 284 280 277 275 274 272 270 268 266 264 262 259 255 254 255 255 257 258 257 256 255 255 255 253 253 253 252 251 250 250 250 249 250
305 301 296 293 291 288 284 281 278 276 273 272 270 268 266 264 261 258 257 257 258 259 259 258 257 257 255 254 253 253 254 254 252 252 251 250 250 251
310 307 302 296 294 290 286 284 280 277 275 273 272 270 268 265 264 262 261 260 260 260 259 257 257 257 255 253 253 253 253 253 252 251 251 251 251 251
315 312 306 301 297 294 290 288 285 282 279 276 274 274 272 268 267 267 265 262 260 259 257 256 256 255 254 253 253 253 253 252 252 251 251 252 253 253
318 315 311 306 301 298 296 292 289 286 282 281 276 275 273 271 269 267 266 263 260 259 256 255 254 253 252 252 253 253 252 251 252 252 252 252 252 252
318 317 315 310 306 303 300 297 293 288 285 283 281 281 277 272 270 267 265 263 261 260 257 255 254 253 253 253 252 251 250 249 250 251 253 253 253 253
320 318 316 316 313 309 304 299 297 294 290 289 287 286 283 281 276 271 270 269 266 263 261 260 258 256 254 253 252 252 251 250 250 250 253 254 253 254
324 323 319 315 314 312 309 305 301 297 293 293 292 289 286 282 281 277 273 273 272 269 265 262 261 260 260 258 257 255 253 252 251 251 253 255 256 255
327 323 321 318 316 315 313 309 306 301 297 295 295 290 286 284 283 280 278 276 272 270 267 263 260 259 259 259 260 257 255 254 253 254 254 256 258 257
332 327 323 320 317 317 317 314 310 308 305 301 297 293 288 285 282 281 281 278 274 271 269 266 262 260 259 260 260 259 257 255 254 254 254 255 258 258
339 335 331 327 324 323 323 319 316 315 312 307 300 296 295 294 290 286 284 283 280 278 277 274 270 267 265 262 261 260 259 258 258 258 258 256 257 257
342 340 337 334 330 327 325 322 319 317 316 311 305 300 298 297 294 292 289 287 285 283 282 280 277 273 268 266 264 263 262 263 262 262 260 258 257 256
345 345 343 339 337 334 331 328 324 320 318 316 311 305 300 298 295 292 292 291 290 287 284 282 280 277 273 269 266 265 265 264 263 263 263 262 259 258
347 345 343 341 341 340 338 335 330 327 325 323 319 313 306 304 301 297 295 294 292 290 287 285 283 279 276 272 270 270 269 266 265 265 265 263 261 260
348 346 344 341 341 341 340 338 334 331 331 329 323 316 311 307 306 305 301 296 292 291 291 289 286 281 278 276 274 274 272 268 266 264 264 263 261 261
350 348 346 344 343 342 343 342 339 336 334 331 324 319 314 309 306 306 303 299 296 293 290 289 287 283 279 278 279 278 276 272 270 266 265 264 263 262
349 349 348 347 346 344 341 340 338 336 334 332 329 324 318 311 307 307 303 299 298 295 294 289 285 284 283 283 282 279 277 274 273 270 269 267 265 264
348 347 347 346 346 345 342 340 338 336 334 332 331 328 323 317 310 310 306 301 298 296 295 293 290 290 289 288 285 280 279 278 275 274 271 267 265 265
346 346 346 345 343 342 341 340 338 338 337 335 333 330 326 322 316 314 311 307 302 299 298 294 291 293 294 292 288 284 283 281 278 276 274 270 268 266
344 345 344 343 342 341 340 339 338 337 336 335 334 331 327 324 320 317 316 314 309 304 300 299 295 294 295 295 294 291 288 284 282 281 279 274 270 269
343 342 343 343 342 340 340 339 337 337 336 336 335 332 329 326 324 321 320 317 311 308 305 301 298 297 296 298 299 296 292 288 286 284 282 279 275 273
Height
5714 5712 5709 5707 5705 5704 5703 5702 5702 5702 5703 5703 5703 5703 5704 5705 5706 5707 5708 5710 5711 5713 5714 5716 5718 5719 5721 5723 5725 5727 5729 5730 5732 5734 5736 5739 5741 5744
5707 5704 5702 5699 5697 5695 5695 5694 5693 5693 5694 5695 5694 5694 5695 5696 5696 5697 5699 5700 5702 5703 5705 5706 5708 5710 5712 5714 5715 5717 5719 5720 5722 5725 5727 5729 5732 5734
5701 5697 5695 5692 5690 5688 5687 5686 5685 5685 5685 5686 5686 5685 5685 5686 5687 5688 5689 5690 5692 5694 5695 5697 5698 5700 5702 5704 5706 5707 5709 5711 5713 5715 5717 5720 5722 5725
5694 5691 5688 5686 5684 5682 5681 5679 5678 5678 5678 5678 5677 5677 5676 5677 5677 5678 5679 5681 5682 5684 5685 5687 5689 5690 5692 5694 5696 5697 5699 5701 5703 5705 5708 5710 5712 5714
5687 5684 5681 5679 5677 5675 5674 5673 5672 5671 5670 5670 5670 5669 5668 5668 5668 5669 5670 5671 5672 5674 5675 5677 5678 5680 5682 5684 5686 5688 5690 5692 5694 5696 5698 5700 5702 5704
5681 5678 5675 5673 5671 5669 5668 5667 5665 5664 5664 5663 5662 5661 5661 5660 5660 5661 5661 5661 5663 5664 5665 5667 5668 5670 5672 5674 5677 5678 5680 5682 5684 5686 5689 5691 5693 5694
5676 5673 5670 5667 5665 5663 5662 5660 5659 5658 5657 5656 5656 5654 5653 5652 5652 5652 5652 5652 5653 5654 5655 5657 5659 5660 5662 5664 5666 5668 5671 5673 5675 5677 5679 5681 5683 5684
5671 5667 5664 5662 5659 5657 5656 5654 5653 5652 5651 5650 5649 5647 5646 5644 5643 5643 5643 5644 5645 5645 5645 5647 5648 5650 5652 5654 5656 5659 5661 5663 5666 5668 5670 5671 5673 5675
5666 5663 5660 5657 5654 5652 5650 5648 5647 5646 5645 5644 5642 5640 5639 5637 5636 5636 5636 5636 5636 5636 5637 5638 5639 5641 5642 5644 5646 5649 5651 5654 5656 5658 5660 5662 5663 5665
5661 5658 5655 5653 5650 5648 5646 5644 5642 5640 5639 5638 5636 5634 5632 5631 5630 5630 5629 5629 5629 5629 5629 5630 5631 5632 5634 5635 5637 5639 5641 5644 5646 5648 5650 5652 5653 5655
5657 5654 5651 5649 5646 5644 5642 5640 5637 5635 5633 5632 5630 5628 5627 5626 5625 5624 5623 5623 5623 5622 5622 5623 5624 5625 5626 5627 5628 5630 5632 5634 5636 5638 5640 5642 5643 5645
5654 5650 5647 5644 5642 5640 5638 5635 5633 5631 5629 5627 5625 5623 5622 5620 5619 5618 5617 5617 5616 5616 5615 5616 5616 5617 5619 5619 5620 5621 5623 5625 5627 5629 5631 5633 5634 5635
5651 5647 5644 5641 5638 5636 5634 5631 5629 5626 5624 5622 5620 5618 5617 5615 5614 5613 5612 5611 5610 5610 5609 5608 5609 5609 5610 5612 5612 5613 5615 5616 5618 5619 5621 5623 5624 5626
5648 5645 5641 5638 5635 5632 5630 5627 5625 5622 5620 5618 5616 5614 5612 5611 5609 5608 5606 5605 5604 5604 5603 5602 5602 5602 5603 5604 5605 5606 5606 5607 5609 5610 5611 5613 5614 5616
5646 5642 5639 5635 5632 5629 5626 5623 5620 5618 5616 5613 5611 5610 5608 5606 5604 5603 5601 5600 5599 5598 5597 5596 5596 5596 5596 5596 5597 5598 5598 5599 5600 5601 5602 5603 5604 5606
5644 5640 5636 5633 5629 5626 5623 5620 5617 5614 5612 5609 5607 5605 5603 5601 5599 5598 5596 5594 5593 5592 5591 5590 5590 5589 5589 5589 5590 5590 5590 5591 5592 5592 5593 5594 5594 5596
5642 5638 5634 5631 5627 5624 5620 5617 5614 5611 5608 5605 5602 5600 5598 5596 5594 5592 5591 5589 5587 5587 5586 5585 5584 5583 5583 5583 5583 5583 5583 5583 5583 5584 5584 5585 5585 5586
5641 5636 5632 5629 5625 5622 5618 5615 5612 5608 5605 5602 5598 5596 5593 5591 5589 5587 5586 5584 5583 5581 5580 5579 5578 5578 5577 5577 5577 5576 5576 5576 5576 5576 5576 5577 5577 5578
5639 5635 5631 5627 5623 5620 5616 5612 5609 5606 5602 5598 5595 5592 5589 5586 5584 5582 5581 5579 5578 5576 5575 5574 5573 5572 5571 5571 5570 5569 5569 5568 5568 5568 5569 5569 5569 5570
5638 5633 5629 5625 5621 5617 5614 5610 5606 5602 5599 5595 5591 5588 5584 5582 5579 5578 5576 5574 5573 5571 5570 5568 5567 5566 5565 5565 5564 5563 5562 5562 5561 5561 5561 5561 5561 5562
5636 5632 5628 5623 5619 5615 5611 5607 5603 5599 5595 5591 5587 5584 5581 5578 5575 5573 5571 5569 5567 5565 5564 5563 5562 5561 5559 5558 5558 5557 5556 5555 5554 5554 5554 5554 5554 5554
5634 5630 5626 5621 5617 5612 5608 5604 5600 5596 5592 5588 5584 5581 5577 5574 5571 5568 5566 5564 5561 5560 5558 5557 5556 5555 5554 5553 5552 5551 5550 5549 5548 5548 5547 5547 5547 5547
5632 5628 5624 5619 5614 5610 5606 5601 5597 5593 5589 5585 5581 5577 5574 5570 5567 5564 5562 5559 5557 5554 5553 5552 5551 5550 5548 5547 5546 5545 5544 5543 5543 5542 5542 5541 5541 5541